CZ-4B R/B (28059 NORAD) Tracking and Keplerian Element Data

This shows tracking and keplerian element data for the satellite.

Feedback or suggestion? Click here.




ElementValue
Catalog28059
NameCZ-4B R/B
Epoch Orbit12862
Epoch Day34.94063744
Epoch Year2025
RAAN10.3614
Inclination98.6443
Eccentricity0.0048889
Argument of Perigee10.2038
Mean Anonmoly350.0139
Mean Motion14.54443193
Decay Rate1.165E-05
L11 28059U 03049C 25034.94063744 .00001165 00000+0 28122-3 0 9991
L22 28059 98.6443 10.3614 0048889 10.2038 350.0139 14.54443193128624



Live tracking and technical data element details for CZ-4B R/B (NORAD 28059). CZ-4B R/B can be tracked NOW for your location showing map with azimuth and elevation plus other details from your city location.







IsCatalogInMostPopularTable: catalog: 28059, numindb: 445
Update: records affected: 1



GetName: 28059 CZ-4B R/B

Hit Count: updated at: Thu, 15 May 2025 10:08:49 GMT